DELTA 1 DEB, 7177

Orbit data source: Space-Track

DELTA 1 DEB, 7177 is space debris in SSO originally from a launch on Tue, 06 Nov 1973 UTC launched from the Air Force Western Test Range (AFWTR). Debris objects in space refer to the collection of defunct objects orbiting the Earth. Examples of debris include non-operational satellites, rocket bodies, and fragments generated from explosions, collisions, or faulty payload assembly.

Loading next visibility...
Identifier
7177, 1973-086EP
Orbit
SSO
Country
Flag of USUS
Related business
Manufacturer
Unknown
Mission
Spacecraft
Bus & Motor
Unknown
Mass
Unknown
Launch date (UTC)
1973-11-06 (52 years ago)
Launch vehicle
Unknown
Launch site
Air Force Western Test Range (AFWTR)
Object type
Payload
Rocket body
Debris
Shape & HBR
Unknown shape, 0.1 m
Radar Cross Section
Small (<0.1 m²)

Expand to show TLE details & history
Last TLE update: 12 hours ago

TLE from 12 hours ago
0 DELTA 1 DEB
1  7177U 73086EP  25299.91887597  .00001016  00000-0  24146-2 0  9994
2  7177 102.0256 275.7938 0239069 112.6726 313.0698 13.16632743474286
Epoch: 2025-10-26T22:03Z
TLE epoch observation values (Epoch: 2025-10-26T22:03:10.883Z)
Latitude
61.35526°
Longitude
-113.35859°
Altitude
1,086.584 km
Speed
7.373 km/s
True Right ascension
16h 51m 51s
True Declination
61° 13' 00"
Sunlit
Object was in daylight at epoch
Visualization orbit readout
Latitude
Unknown
Longitude
Unknown
Altitude
Unknown
Speed
Unknown
Apparent Right ascension
Unknown
Apparent Declination
Unknown
Sunlit
N/A
Visualization observer readout
Local Sidereal Time
05:51:06
Azimuth
Unknown
Elevation
Unknown
Doppler factor
Unknown
Orbital elements
Apogee altitude
1,376.136 km
Perigee altitude
1,014.032 km
Semi-major axis
7,573.221 km
Eccentricity
0.02391
Inclination
102.0256°
RAAN
275.7938°
Arg. of periapsis
112.6726°
True anomaly
311.02729°
Mean anomaly
313.0698°
Eccentric anomaly
312.05271°
Mean motion
3.29323 °/min
Orbital period
109.32 mins
BSTAR
0.0024146
Loading maneuver chart data...
Computing Atmospheric mass density...
Loading historical data...
Loading historical data...
Loading historical data...
Loading historical data...
Loading historical data...
Loading historical data...
Loading historical data...

Documentation

Showing up to 5 results
|